Flag for U.S.A. Weather past 2 weeks in Trenton, New Jersey, U.S.A.

Now
32 °F

Overcast.


Feels Like: 27 °F
Forecast: 27 / 37 °F
Wind: 5 mph from North

Location: Mercer County Airport

Current Time: Dec 20, 2014 at 4:11:14 AM

Latest Report: Dec 20, 2014 at 2:53 AM


Visibility: 10 mi

Pressure: 30.20 "Hg

Humidity: 64%

Dew point: 21 °F

Location of TrentonLocation

Historic Weather in Trenton — Graph

°F

Trenton temperature yesterday

Maximum temperature yesterday: 39 °F (at 2:53 PM)
Minimum temperature yesterday: 31 °F (at 8:53 PM)
Average temperature yesterday: 35 °F

Past Weeks' High & Low Weather Summary

 TemperatureHumidityPressure
High51 °F (Dec 17, 1:53 PM)97% (Dec 5, 7:57 PM)30.63 "Hg (Dec 5, 7:57 PM)
Low23 °F (Dec 8, 5:53 AM)28% (Dec 7, 1:53 PM)29.63 "Hg (Dec 10, 1:53 PM)
Average38 °F70%30.04 "Hg
* Reported Dec 5 2:53 AM — Dec 20 2:53 AM, Trenton, Weather by CustomWeather, © 2014

Note: Actual official high and low records may vary slightly from our data, if they occured in-between our weather recording intervals... More about our weather records

Advertising

Trenton weather history for previous 24 hours

 ConditionsComfort  
Time TempWeatherWind HumidityBarometerVisibility
2:53 AM
Dec 20
32 °FOvercast.5 mph64%30.20 "Hg10 mi
1:53 AM32 °FOvercast.7 mph64%30.18 "Hg10 mi
12:53 AM32 °FOvercast.5 mph64%30.17 "Hg10 mi
11:53 PM
Dec 19
32 °FOvercast.5 mph61%30.18 "Hg10 mi
10:53 PM32 °FOvercast.5 mph61%30.18 "Hg10 mi
9:53 PM31 °FPassing clouds.6 mph61%30.16 "Hg10 mi
8:53 PM31 °FOvercast.9 mph61%30.16 "Hg10 mi
7:53 PM32 °FPassing clouds.10 mph59%30.14 "Hg10 mi
6:53 PM32 °FClear.12 mph61%30.15 "Hg10 mi
5:53 PM32 °FClear.5 mph61%30.12 "Hg10 mi
4:53 PM34 °FClear.10 mph59%30.09 "Hg10 mi
3:53 PM37 °FSunny.13 mph50%30.05 "Hg10 mi
2:53 PM39 °FSunny.12 mph46%30.04 "Hg10 mi
1:53 PM38 °FPartly sunny.13 mph48%30.04 "Hg10 mi
12:53 PM38 °FScattered clouds.15 mph51%30.04 "Hg10 mi
11:53 AM37 °FOvercast.12 mph52%30.04 "Hg10 mi
10:53 AM37 °FOvercast.14 mph57%30.05 "Hg10 mi
9:53 AM37 °FOvercast.8 mph65%30.06 "Hg10 mi
8:53 AM36 °FOvercast.8 mph67%30.04 "Hg10 mi
7:53 AM36 °FOvercast.6 mph64%30.03 "Hg10 mi
6:53 AM36 °FOvercast.6 mph62%30.01 "Hg10 mi
5:53 AM36 °FOvercast.7 mph62%30.00 "Hg10 mi
4:53 AM36 °FOvercast.5 mph62%29.99 "Hg10 mi
Weather by CustomWeather, © 2014

See weather overviewHow to use our weather pages